Regional Weather Roundup
Issued by NWS

Home | Current Version | Previous Version | Text Only | Print | Product List | Glossary On
Versions: 1 2 3 4 5 6 7 8 9 10 11 12 13 14 15 16 17 18 19 20 21 22 23 24 25 26 27 28 29 30 31 32 33 34 35 36 37 38 39 40 41 42 43 44 45 46 47 48 49 50
000
ASUS43 KLMK 221502
RWRKY
KENTUCKY REGIONAL WEATHER ROUNDUP
NATIONAL WEATHER SERVICE LOUISVILLE KY
1100 AM EDT TUE JUL 22 2014

NOTE "FAIR" INDICATES FEW OR NO CLOUDS BELOW 12,000 FEET
WITH NO SIGNIFICANT WEATHER AND/OR OBSTRUCTIONS TO VISIBILITY.

KYZ001>023-026-027-061>063-070>075-221600-
WESTERN AND SOUTH CENTRAL KENTUCKY

CITY           SKY/WX    TMP DP  RH WIND       PRES   REMARKS
PADUCAH        SUNNY     85  69  58 CALM      30.08F
HENDERSON      SUNNY     84  72  65 CALM      30.08S
OWENSBORO      SUNNY     85  71  62 S6        30.09F HX  90
HOPKINSVILLE   SUNNY     86  71  61 VRB3      30.09F HX  92
BOWLING GREEN  MOSUNNY   85  72  65 VRB7      30.10F HX  91
GLASGOW        SUNNY     84  69  62 SW5       30.12S
$$

KYZ024-025-028>034-038-045-046-053-221600-
NORTH CENTRAL KENTUCKY

CITY           SKY/WX    TMP DP  RH WIND       PRES   REMARKS
LOUISVILLE/SDF MOSUNNY   84  71  65 SE3       30.10S
LOUISVILLE/LOU SUNNY     85  70  60 CALM      30.10F
FORT KNOX      SUNNY     83  73  69 CALM      30.10F
$$

KYZ035>037-039>044-047>052-055>060-089>105-221600-
NORTHEAST KENTUCKY

CITY           SKY/WX    TMP DP  RH WIND       PRES   REMARKS
LEXINGTON      SUNNY     83  72  69 SW5       30.13F
COVINGTON      MOSUNNY   84  70  62 SW6       30.12F
FRANKFORT      SUNNY     84  71  65 CALM      30.11F
$$

KYZ054-064>069-076>088-106>120-221600-
SOUTHEAST KENTUCKY

CITY           SKY/WX    TMP DP  RH WIND       PRES   REMARKS
JACKSON        SUNNY     80  68  66 CALM      30.17F
LONDON         SUNNY     81  68  64 SW7       30.17F
SOMERSET       SUNNY     81  72  74 SW3       30.15F
MIDDLESBORO    SUNNY     80  68  67 CALM      30.17F
MONTICELLO     SUNNY     83  72  69 SW3       30.16F
$$



USA.gov is the U.S. government's official web portal to all federal, state and local government web resources and services.